Flag for Croatia Weather past 2 weeks in Zagreb, Croatia

Now
61 °F

Clear.


Feels Like: 61 °F
Forecast: 58 / 84 °F
Wind: 5 mph from North

Location: Zagreb / Pleso

Current Time: Sep 1, 2015 at 4:19:54 AM

Latest Report: Sep 1, 2015 at 4:00 AM


Visibility: 10 mi

Pressure: 29.92 "Hg

Humidity: 83%

Dew point: 55 °F

Location of ZagrebLocation

Historic Weather in Zagreb — Graph

°F

Zagreb temperature yesterday

Maximum temperature yesterday: 91 °F (at 2:30 PM)
Minimum temperature yesterday: 66 °F (at 4:00 AM)
Average temperature yesterday: 77 °F

Past Weeks' High & Low Weather Summary

 TemperatureHumidityPressure
High91 °F (Aug 29, 4:30 PM)94% (Aug 17, 5:00 AM)30.21 "Hg (Aug 17, 5:00 AM)
Low55 °F (Aug 22, 4:00 AM)26% (Aug 31, 2:00 PM)29.71 "Hg (Aug 17, 3:00 AM)
Average70 °F72%30.04 "Hg
* Reported Aug 17 3:00 AM — Sep 1 3:00 AM, Zagreb, Weather by CustomWeather, © 2015

Note: Actual official high and low records may vary slightly from our data, if they occured in-between our weather recording intervals... More about our weather records

Advertising

Zagreb weather history for previous 24 hours

 ConditionsComfort  
Time TempWeatherWind HumidityBarometerVisibility
3:00 AM
Tue, Sep 1
61 °FClear.6 mph83%29.92 "Hg10 mi
2:30 AM63 °FClear.5 mph77%29.95 "Hg10 mi
2:00 AM63 °FClear.3 mph83%29.95 "Hg10 mi
1:30 AM64 °FClear.1 mph73%29.95 "Hg10 mi
1:00 AM66 °FClear.1 mph73%29.95 "Hg10 mi
12:00 AM68 °FClear.2 mph64%29.95 "Hg10 mi
11:30 PM
Mon, Aug 31
70 °FClear.2 mph60%29.95 "Hg10 mi
11:00 PM70 °FClear.6 mph69%29.95 "Hg10 mi
10:30 PM70 °FClear.5 mph69%29.95 "Hg10 mi
10:00 PM72 °FClear.8 mph69%29.95 "Hg10 mi
9:30 PM72 °FClear.8 mph69%29.95 "Hg10 mi
9:00 PM73 °FClear.8 mph65%29.95 "Hg10 mi
8:30 PM75 °FSunny.7 mph61%29.95 "Hg10 mi
8:00 PM79 °FSunny.8 mph51%29.95 "Hg10 mi
7:30 PM82 °FSunny.6 mph48%29.95 "Hg10 mi
7:00 PM86 °FSunny.7 mph43%29.95 "Hg10 mi
6:30 PM88 °FSunny.7 mph38%29.95 "Hg10 mi
6:00 PM90 °FSunny.10 mph33%29.95 "Hg10 mi
5:30 PM91 °FSunny.9 mph32%29.95 "Hg10 mi
5:00 PM91 °FPassing clouds.9 mph30%29.95 "HgN/A
4:30 PM91 °FPassing clouds.9 mph32%29.98 "HgN/A
4:00 PM91 °FPassing clouds.10 mph30%29.98 "HgN/A
3:30 PM91 °FPassing clouds.10 mph30%29.98 "HgN/A
3:00 PM91 °FPassing clouds.10 mph30%30.01 "HgN/A
2:30 PM91 °FPassing clouds.7 mph30%30.01 "HgN/A
2:00 PM90 °FPassing clouds.9 mph26%30.01 "HgN/A
1:30 PM90 °FPassing clouds.9 mph29%30.01 "HgN/A
1:00 PM88 °FPassing clouds.12 mph35%30.04 "HgN/A
12:30 PM86 °FPassing clouds.10 mph33%30.04 "HgN/A
12:00 PM84 °FPassing clouds.10 mph40%30.04 "HgN/A
11:30 AM84 °FPassing clouds.8 mph43%30.04 "HgN/A
11:00 AM82 °FPassing clouds.7 mph45%30.07 "HgN/A
10:30 AM81 °FPassing clouds.6 mph54%30.07 "HgN/A
10:00 AM77 °FPassing clouds.6 mph65%30.07 "HgN/A
9:30 AM73 °FPassing clouds.3 mph83%30.07 "HgN/A
9:00 AM70 °FPassing clouds.3 mph94%30.07 "Hg5 mi
8:30 AM68 °FPartly sunny.2 mph94%30.07 "Hg1 mi
8:00 AM68 °FFog.2 mph94%30.07 "Hg0 mi
7:30 AM66 °FFog.2 mph94%30.07 "Hg0 mi
7:00 AM66 °FFog.2 mph94%30.07 "Hg0 mi
6:30 AM66 °FFog.2 mph88%30.04 "Hg0 mi
6:00 AM66 °FLight fog.3 mph94%30.04 "Hg1 mi
5:30 AM66 °FPassing clouds.2 mph94%30.04 "Hg0 mi
5:00 AM66 °FFog.No wind94%30.04 "Hg2 mi
4:30 AM66 °FFog.1 mph94%30.04 "HgN/A
4:00 AM66 °FFog.1 mph94%30.04 "HgN/A
Weather by CustomWeather, © 2015

See weather overviewHow to use our weather pages